| time (UTC) | temp C | wind direction | speed KPH | gust KPH | rain 1hr cm | rain 24hr cm | rain mn cm | humidity % | barometer mb |
| 20260504130548 | 12 | 180 | 1.6 | 3.2 | 0.00 | 0.00 | 0.00 | 66 | |
| 20260504110527 | 6 | 0.0 | 0.0 | 0.00 | 0.00 | 0.00 | 81 | ||
| 20260504100527 | 7 | 0.0 | 0.0 | 0.00 | 0.00 | 0.00 | 77 | ||
| 20260504081521 | 10 | 0.0 | 0.0 | 0.00 | 0.00 | 0.00 | 62 | ||
| 20260504080528 | 10 | 0.0 | 0.0 | 0.00 | 0.00 | 0.00 | 61 | ||
| 20260504050527 | 11 | 0.0 | 0.0 | 0.00 | 0.00 | 0.00 | 59 | ||
| 20260504045533 | 11 | 0.0 | 0.0 | 0.00 | 0.00 | 0.00 | 55 | ||
| 20260504044521 | 11 | 0.0 | 0.0 | 0.00 | 0.00 | 0.00 | 55 | ||
| 20260504043527 | 12 | 0.0 | 0.0 | 0.00 | 0.00 | 0.00 | 53 | ||
| 20260504042533 | 13 | 0.0 | 0.0 | 0.00 | 0.00 | 0.00 | 48 | ||
| 20260504041541 | 13 | 0.0 | 0.0 | 0.00 | 0.00 | 0.00 | 45 | ||
| 20260504040527 | 13 | 0.0 | 3.2 | 0.00 | 0.00 | 0.00 | 44 | ||
| 20260504035533 | 13 | 248 | 1.6 | 4.8 | 0.00 | 0.00 | 0.00 | 45 | |
| 20260504034522 | 13 | 248 | 0.0 | 3.2 | 0.00 | 0.00 | 0.00 | 46 | |
| 20260504033546 | 12 | 0.0 | 0.0 | 0.00 | 0.00 | 0.00 | 47 | ||
| 20260504032532 | 13 | 184 | 1.6 | 3.2 | 0.00 | 0.00 | 0.00 | 47 | |
| 20260504031521 | 12 | 248 | 0.0 | 3.2 | 0.00 | 0.00 | 0.00 | 53 | |
| 20260504030527 | 12 | 0.0 | 0.0 | 0.00 | 0.00 | 0.00 | 51 | ||
| 20260504025533 | 12 | 0.0 | 0.0 | 0.00 | 0.00 | 0.00 | 51 | ||
| 20260504024521 | 13 | 0.0 | 0.0 | 0.00 | 0.00 | 0.00 | 50 | ||
| 20260504023527 | 13 | 0.0 | 0.0 | 0.00 | 0.00 | 0.00 | 50 | ||
| 20260504022551 | 13 | 0.0 | 0.0 | 0.00 | 0.00 | 0.00 | 48 | ||
| 20260504021521 | 13 | 0.0 | 0.0 | 0.00 | 0.00 | 0.00 | 47 | ||
| 20260504020526 | 14 | 0.0 | 0.0 | 0.00 | 0.00 | 0.00 | 44 | ||
| 20260504015532 | 15 | 0.0 | 0.0 | 0.00 | 0.00 | 0.00 | 42 | ||
| 20260504014521 | 16 | 0.0 | 0.0 | 0.00 | 0.00 | 0.00 | 41 | ||
| 20260504013527 | 16 | 0.0 | 0.0 | 0.00 | 0.00 | 0.00 | 39 | ||
| 20260504012533 | 17 | 0.0 | 0.0 | 0.00 | 0.00 | 0.00 | 37 | ||
| 20260504011520 | 18 | 0.0 | 0.0 | 0.00 | 0.00 | 0.00 | 34 | ||
| 20260504010527 | 20 | 0.0 | 0.0 | 0.00 | 0.00 | 0.00 | 31 | ||
| 20260504005532 | 22 | 0.0 | 0.0 | 0.00 | 0.00 | 0.00 | 28 | ||
| 20260504004521 | 23 | 0.0 | 0.0 | 0.00 | 0.00 | 0.00 | 26 | ||
| 20260504003547 | 25 | 0.0 | 0.0 | 0.00 | 0.00 | 0.00 | 24 | ||
| 20260504002533 | 25 | 243 | 1.6 | 4.8 | 0.00 | 0.00 | 0.00 | 22 | |
| 20260504001539 | 26 | 274 | 3.2 | 4.8 | 0.00 | 0.00 | 0.00 | 21 | |
| 20260504000527 | 26 | 3 | 3.2 | 8.0 | 0.00 | 0.00 | 0.00 | 21 | |
| 20260503235533 | 27 | 267 | 3.2 | 8.0 | 0.00 | 0.00 | 0.00 | 20 | |
| 20260503234520 | 27 | 318 | 3.2 | 6.4 | 0.00 | 0.00 | 0.00 | 21 | |
| 20260503233529 | 27 | 293 | 4.8 | 8.0 | 0.00 | 0.00 | 0.00 | 20 | |
| 20260503232533 | 28 | 266 | 1.6 | 6.4 | 0.00 | 0.00 | 0.00 | 20 | |
| 20260503231521 | 26 | 311 | 4.8 | 12.9 | 0.00 | 0.00 | 0.00 | 21 | |
| 20260503230527 | 25 | 279 | 4.8 | 6.4 | 0.00 | 0.00 | 0.00 | 22 | |
| 20260503225535 | 26 | 265 | 6.4 | 11.3 | 0.00 | 0.00 | 0.00 | 21 | |
| 20260503224521 | 26 | 4 | 6.4 | 11.3 | 0.00 | 0.00 | 0.00 | 21 | |
| 20260503223527 | 26 | 227 | 3.2 | 8.0 | 0.00 | 0.00 | 0.00 | 22 | |
| 20260503222532 | 26 | 354 | 4.8 | 8.0 | 0.00 | 0.00 | 0.00 | 22 | |
| 20260503221541 | 26 | 235 | 4.8 | 11.3 | 0.00 | 0.00 | 0.00 | 22 | |
| 20260503220527 | 26 | 300 | 4.8 | 11.3 | 0.00 | 0.00 | 0.00 | 21 | |
| 20260503215553 | 26 | 317 | 6.4 | 14.5 | 0.00 | 0.00 | 0.00 | 22 | |
| 20260503214520 | 26 | 314 | 4.8 | 9.7 | 0.00 | 0.00 | 0.00 | 22 | |
| 20260503213546 | 26 | 282 | 6.4 | 9.7 | 0.00 | 0.00 | 0.00 | 22 | |
| 20260503212554 | 26 | 338 | 4.8 | 8.0 | 0.00 | 0.00 | 0.00 | 22 | |
| 20260503211520 | 26 | 3 | 6.4 | 11.3 | 0.00 | 0.00 | 0.00 | 22 | |
| 20260503210529 | 26 | 12 | 6.4 | 11.3 | 0.00 | 0.00 | 0.00 | 20 | |
| 20260503205532 | 26 | 336 | 6.4 | 12.9 | 0.00 | 0.00 | 0.00 | 23 | |
| 20260503204522 | 26 | 325 | 8.0 | 12.9 | 0.00 | 0.00 | 0.00 | 22 | |
| 20260503203526 | 26 | 254 | 8.0 | 12.9 | 0.00 | 0.00 | 0.00 | 22 | |
| 20260503202552 | 26 | 286 | 6.4 | 12.9 | 0.00 | 0.00 | 0.00 | 23 | |
| 20260503201520 | 26 | 303 | 8.0 | 12.9 | 0.00 | 0.00 | 0.00 | 23 | |
| 20260503200526 | 27 | 264 | 6.4 | 9.7 | 0.00 | 0.00 | 0.00 | 23 | |
| 20260503195531 | 26 | 291 | 6.4 | 14.5 | 0.00 | 0.00 | 0.00 | 23 | |
| 20260503194520 | 26 | 297 | 4.8 | 6.4 | 0.00 | 0.00 | 0.00 | 25 | |
| 20260503193525 | 26 | 283 | 6.4 | 12.9 | 0.00 | 0.00 | 0.00 | 24 | |
| 20260503192549 | 26 | 252 | 8.0 | 16.1 | 0.00 | 0.00 | 0.00 | 24 | |
| 20260503191520 | 25 | 270 | 8.0 | 11.3 | 0.00 | 0.00 | 0.00 | 27 | |
| 20260503190525 | 26 | 326 | 4.8 | 11.3 | 0.00 | 0.00 | 0.00 | 27 | |
| 20260503185531 | 26 | 298 | 8.0 | 16.1 | 0.00 | 0.00 | 0.00 | 26 | |
| 20260503184519 | 26 | 288 | 8.0 | 12.9 | 0.00 | 0.00 | 0.00 | 26 | |
| 20260503183524 | 25 | 288 | 6.4 | 12.9 | 0.00 | 0.00 | 0.00 | 27 | |
| 20260503182530 | 25 | 297 | 8.0 | 12.9 | 0.00 | 0.00 | 0.00 | 26 | |
| 20260503181539 | 25 | 269 | 8.0 | 12.9 | 0.00 | 0.00 | 0.00 | 27 | |
| 20260503180545 | 25 | 292 | 8.0 | 14.5 | 0.00 | 0.00 | 0.00 | 26 | |
| 20260503175531 | 25 | 9 | 6.4 | 9.7 | 0.00 | 0.00 | 0.00 | 28 | |
| 20260503174519 | 25 | 304 | 6.4 | 16.1 | 0.00 | 0.00 | 0.00 | 28 | |
| 20260503173525 | 25 | 307 | 6.4 | 9.7 | 0.00 | 0.00 | 0.00 | 29 | |
| 20260503172530 | 24 | 340 | 6.4 | 12.9 | 0.00 | 0.00 | 0.00 | 30 | |
| 20260503171518 | 23 | 307 | 6.4 | 12.9 | 0.00 | 0.00 | 0.00 | 33 | |
| 20260503170544 | 23 | 333 | 6.4 | 9.7 | 0.00 | 0.00 | 0.00 | 32 | |
| 20260503150524 | 19 | 248 | 4.8 | 9.7 | 0.00 | 0.00 | 0.00 | 41 |